"Time (UTCG)","Azimuth (deg)","Elevation (deg)","Range (km)"
24 Feb 2020 18:22:06.669,356.649,0.000,2357.825932
24 Feb 2020 18:23:06.000,5.447,2.422,2103.114664
24 Feb 2020 18:24:06.000,16.506,4.596,1900.427530
24 Feb 2020 18:25:06.000,29.693,6.110,1773.031470
24 Feb 2020 18:26:06.000,44.172,6.541,1738.311070
24 Feb 2020 18:27:06.000,58.406,5.735,1801.951720
24 Feb 2020 18:28:06.000,71.002,3.958,1954.292217
24 Feb 2020 18:29:06.000,81.375,1.649,2176.387134
24 Feb 2020 18:29:45.725,87.060,0.000,2352.119602
24 Feb 2020 19:57:28.341,317.203,0.000,2356.728762
24 Feb 2020 19:58:28.000,316.183,4.063,1946.839099
24 Feb 2020 19:59:28.000,314.515,9.326,1538.142934
24 Feb 2020 20:00:28.000,311.445,16.968,1139.483837
24 Feb 2020 20:01:28.000,304.282,30.228,769.655367
24 Feb 2020 20:02:28.000,275.140,55.732,500.749217
24 Feb 2020 20:03:28.000,182.115,51.680,524.443093
24 Feb 2020 20:04:28.000,159.216,27.801,815.574068
24 Feb 2020 20:05:28.000,152.928,15.618,1191.407727
24 Feb 2020 20:06:28.000,150.077,8.408,1592.069994
24 Feb 2020 20:07:28.000,148.455,3.348,2001.521548
24 Feb 2020 20:08:17.725,147.556,0.000,2343.280397
24 Feb 2020 21:38:47.344,242.441,0.000,2347.460425
24 Feb 2020 21:39:09.052,238.538,0.043,2342.033753
24 Feb 2020 21:39:30.759,234.634,0.000,2346.264589
25 Feb 2020 09:18:24.862,203.866,-0.000,2324.779542
25 Feb 2020 09:19:24.000,200.974,3.948,1928.376814
25 Feb 2020 09:20:24.000,196.465,8.994,1535.500094
25 Feb 2020 09:21:24.000,188.679,15.920,1164.055032
25 Feb 2020 09:22:24.000,172.952,25.959,845.492142
25 Feb 2020 09:23:24.000,138.320,36.249,663.416610
25 Feb 2020 09:24:24.000,94.044,31.921,729.458563
25 Feb 2020 09:25:24.000,70.451,20.614,995.255334
25 Feb 2020 09:26:24.000,59.649,12.285,1346.667967
25 Feb 2020 09:27:24.000,53.875,6.445,1731.358012
25 Feb 2020 09:28:24.000,50.357,1.997,2130.208136
25 Feb 2020 09:28:55.577,49.016,0.000,2342.910644
25 Feb 2020 10:56:08.789,262.656,0.000,2333.776964
25 Feb 2020 10:57:08.000,270.433,2.923,2032.618018
25 Feb 2020 10:58:08.000,280.859,5.881,1772.957004
25 Feb 2020 10:59:08.000,294.398,8.437,1582.843098
25 Feb 2020 11:00:08.000,310.711,9.863,1489.854694
25 Feb 2020 11:01:08.000,327.855,9.535,1512.215998
25 Feb 2020 11:02:08.000,343.257,7.623,1644.960004
25 Feb 2020 11:03:08.000,355.599,4.878,1864.024442
25 Feb 2020 11:04:08.000,5.004,1.918,2142.205828
25 Feb 2020 11:04:47.461,9.907,-0.000,2346.915382
25 Feb 2020 17:35:02.594,12.131,0.000,2357.699173
25 Feb 2020 17:36:02.000,22.460,1.258,2221.437096
25 Feb 2020 17:37:02.000,33.886,1.911,2153.737749
25 Feb 2020 17:38:02.000,45.623,1.811,2163.327006
25 Feb 2020 17:39:02.000,56.856,0.978,2249.338239
25 Feb 2020 17:39:45.603,64.336,0.000,2355.220658
25 Feb 2020 19:09:14.391,327.105,0.000,2357.247286
25 Feb 2020 19:10:14.000,329.007,4.018,1951.671077
25 Feb 2020 19:11:14.000,331.883,9.184,1548.326979
25 Feb 2020 19:12:14.000,336.831,16.544,1157.705756
25 Feb 2020 19:13:14.000,347.487,28.622,801.629654
25 Feb 2020 19:14:14.000,20.553,47.667,554.500797
25 Feb 2020 19:15:14.000,88.623,44.589,580.088931
25 Feb 2020 19:16:14.000,115.535,26.111,854.284327
25 Feb 2020 19:17:14.000,124.723,15.037,1218.974835
25 Feb 2020 19:18:14.000,129.153,8.137,1613.001484
25 Feb 2020 19:19:14.000,131.759,3.195,2018.133567
25 Feb 2020 19:20:02.029,133.187,0.000,2345.717388
25 Feb 2020 20:47:26.266,279.122,0.000,2353.384540
25 Feb 2020 20:48:26.000,270.003,2.311,2108.981083
25 Feb 2020 20:49:26.000,258.725,4.258,1924.402065
25 Feb 2020 20:50:26.000,245.568,5.452,1820.217005
25 Feb 2020 20:51:26.000,231.537,5.550,1810.646037
25 Feb 2020 20:52:26.000,218.106,4.518,1896.990726
25 Feb 2020 20:53:26.000,206.412,2.665,2066.776544
25 Feb 2020 20:54:26.000,196.826,0.382,2300.839589
25 Feb 2020 20:54:35.535,195.489,0.000,2342.687230
26 Feb 2020 08:30:40.564,188.376,0.000,2323.027105
26 Feb 2020 08:31:40.000,182.485,3.503,1967.386954
26 Feb 2020 08:32:40.000,173.953,7.516,1637.156262
26 Feb 2020 08:33:40.000,161.286,11.893,1359.070157
26 Feb 2020 08:34:40.000,142.887,15.722,1172.570722
26 Feb 2020 08:35:40.000,119.926,16.888,1125.259854
26 Feb 2020 08:36:40.000,98.303,14.435,1233.588647
26 Feb 2020 08:37:40.000,82.329,10.222,1463.127678
26 Feb 2020 08:38:40.000,71.575,5.961,1766.596482
26 Feb 2020 08:39:40.000,64.293,2.152,2111.441362
26 Feb 2020 08:40:17.556,60.894,0.000,2339.800703
26 Feb 2020 10:07:06.942,246.302,0.000,2329.610670
26 Feb 2020 10:08:06.000,251.726,3.563,1968.260534
26 Feb 2020 10:09:06.000,259.681,7.755,1625.772518
26 Feb 2020 10:10:06.000,271.738,12.544,1329.140844
26 Feb 2020 10:11:06.000,290.071,17.179,1117.028746
26 Feb 2020 10:12:06.000,314.505,19.196,1043.212825
26 Feb 2020 10:13:06.000,338.472,16.790,1135.099822
26 Feb 2020 10:14:06.000,356.034,12.092,1359.013958
26 Feb 2020 10:15:06.000,7.559,7.387,1661.584924
26 Feb 2020 10:16:06.000,15.223,3.287,2006.478313
26 Feb 2020 10:17:01.379,20.229,-0.000,2345.260601
26 Feb 2020 18:21:11.586,336.720,0.000,2357.434687
26 Feb 2020 18:22:11.000,341.334,3.693,1981.590373
26 Feb 2020 18:23:11.000,348.121,8.147,1619.828184
26 Feb 2020 18:24:11.000,358.753,13.590,1293.265950
26 Feb 2020 18:25:11.000,16.292,19.724,1037.868266
26 Feb 2020 18:26:11.000,43.045,23.698,916.864130
26 Feb 2020 18:27:11.000,71.790,21.410,982.003634
26 Feb 2020 18:28:11.000,92.190,15.431,1203.373698
26 Feb 2020 18:29:11.000,104.558,9.654,1513.374839
26 Feb 2020 18:30:11.000,112.257,4.899,1867.544398
26 Feb 2020 18:31:11.000,117.388,0.963,2244.026526
26 Feb 2020 18:31:27.269,118.492,0.000,2348.406713
26 Feb 2020 19:58:12.184,295.301,0.000,2355.388615
26 Feb 2020 19:59:12.000,288.751,3.309,2014.871216
26 Feb 2020 20:00:12.000,279.565,6.901,1708.568330
26 Feb 2020 20:01:12.000,266.614,10.496,1461.497957
26 Feb 2020 20:02:12.000,249.227,13.203,1308.806849
26 Feb 2020 20:03:12.000,229.104,13.649,1285.150394
26 Feb 2020 20:04:12.000,210.431,11.529,1397.045684
26 Feb 2020 20:05:12.000,195.970,8.072,1616.058160
26 Feb 2020 20:06:12.000,185.608,4.417,1904.750575
26 Feb 2020 20:07:12.000,178.213,0.996,2235.225808
26 Feb 2020 20:07:30.550,176.364,0.000,2342.959533
27 Feb 2020 07:43:24.089,170.393,0.000,2322.213445
27 Feb 2020 07:44:24.000,161.713,2.658,2046.824125
27 Feb 2020 07:45:24.000,150.584,5.107,1826.140946
27 Feb 2020 07:46:24.000,136.919,6.903,1683.716486
27 Feb 2020 07:47:24.000,121.599,7.500,1640.902799
27 Feb 2020 07:48:24.000,106.488,6.662,1705.568632
27 Feb 2020 07:49:24.000,93.318,4.716,1866.478147
27 Feb 2020 07:50:24.000,82.740,2.213,2101.181446
27 Feb 2020 07:51:13.825,75.782,0.000,2335.961149
27 Feb 2020 09:18:26.169,231.267,0.000,2326.172494
27 Feb 2020 09:19:26.000,234.033,4.013,1923.745623
27 Feb 2020 09:20:26.000,238.290,9.114,1528.637571
27 Feb 2020 09:21:26.000,245.641,16.197,1153.157100
27 Feb 2020 09:22:26.000,260.733,26.799,827.006773
27 Feb 2020 09:23:26.000,296.211,38.619,633.810212
27 Feb 2020 09:24:26.000,344.183,34.069,695.716238
27 Feb 2020 09:25:26.000,8.464,21.619,964.481942
27 Feb 2020 09:26:26.000,19.154,12.824,1318.383196
27 Feb 2020 09:27:26.000,24.855,6.802,1704.114736
27 Feb 2020 09:28:26.000,28.393,2.273,2102.994358
27 Feb 2020 09:29:01.704,29.939,0.000,2343.269846
27 Feb 2020 10:59:35.478,307.020,0.000,2339.962959
27 Feb 2020 11:00:35.000,317.772,0.640,2271.179752
27 Feb 2020 11:01:35.000,328.923,0.622,2274.490087
27 Feb 2020 11:02:31.577,339.104,0.000,2344.066081
27 Feb 2020 17:33:20.413,346.704,0.000,2357.400130
27 Feb 2020 17:34:20.000,353.753,3.144,2033.041272
27 Feb 2020 17:35:20.000,3.374,6.486,1743.760896
27 Feb 2020 17:36:20.000,16.449,9.696,1515.187744
27 Feb 2020 17:37:20.000,33.297,11.960,1379.193401
27 Feb 2020 17:38:20.000,52.223,12.215,1364.559228
27 Feb 2020 17:39:20.000,69.781,10.303,1475.138951
27 Feb 2020 17:40:20.000,83.719,7.195,1686.245100
27 Feb 2020 17:41:20.000,94.014,3.823,1965.172144
27 Feb 2020 17:42:20.000,101.550,0.592,2286.417057
27 Feb 2020 17:42:31.467,102.751,0.000,2351.138087
27 Feb 2020 19:09:27.466,307.723,0.000,2356.393568
27 Feb 2020 19:10:27.000,304.084,3.847,1966.226394
27 Feb 2020 19:11:27.000,298.507,8.603,1586.521441
27 Feb 2020 19:12:27.000,289.249,14.760,1235.213432
27 Feb 2020 19:13:27.000,272.384,22.590,946.686161
27 Feb 2020 19:14:27.000,242.413,28.912,794.322094
27 Feb 2020 19:15:27.000,207.747,26.073,854.929155
27 Feb 2020 19:16:27.000,185.408,18.055,1093.375506
27 Feb 2020 19:17:27.000,173.359,11.090,1422.132164
27 Feb 2020 19:18:27.000,166.378,5.770,1791.123841
27 Feb 2020 19:19:27.000,161.919,1.549,2178.801921
27 Feb 2020 19:19:52.137,160.500,0.000,2344.233207
28 Feb 2020 06:57:11.427,143.640,0.000,2323.388763
28 Feb 2020 06:58:11.000,132.939,1.033,2212.938348
28 Feb 2020 06:59:11.000,121.421,1.391,2177.141020
28 Feb 2020 07:00:11.000,109.945,0.990,2221.035584
28 Feb 2020 07:01:07.096,99.943,0.000,2330.292287
28 Feb 2020 08:30:03.662,216.749,0.000,2323.357842
28 Feb 2020 08:31:03.000,216.527,4.101,1913.096374
28 Feb 2020 08:32:03.000,216.161,9.497,1500.973354
28 Feb 2020 08:33:03.000,215.461,17.525,1097.379148
28 Feb 2020 08:34:03.000,213.682,32.310,719.948167
28 Feb 2020 08:35:03.000,202.449,67.291,445.015616
28 Feb 2020 08:36:03.000,47.710,55.461,494.648208
28 Feb 2020 08:37:03.000,41.967,27.590,811.149746
28 Feb 2020 08:38:03.000,40.653,15.255,1198.347063
28 Feb 2020 08:39:03.000,40.122,8.117,1604.822818
28 Feb 2020 08:40:03.000,39.872,3.124,2017.732091
28 Feb 2020 08:40:49.766,39.774,0.000,2340.961031
28 Feb 2020 10:09:03.146,279.492,0.000,2333.886402
28 Feb 2020 10:10:03.000,289.078,2.131,2110.159380
28 Feb 2020 10:11:03.000,300.613,3.832,1949.030993
28 Feb 2020 10:12:03.000,313.686,4.760,1868.089322
28 Feb 2020 10:13:03.000,327.272,4.664,1877.888990
28 Feb 2020 10:14:03.000,340.086,3.576,1976.863917
28 Feb 2020 10:15:03.000,351.232,1.787,2152.215898
28 Feb 2020 10:15:52.962,359.042,0.000,2343.857121
28 Feb 2020 16:45:45.214,358.164,0.000,2357.162356
28 Feb 2020 16:46:45.000,7.255,2.328,2112.050112
28 Feb 2020 16:47:45.000,18.454,4.333,1923.509152
28 Feb 2020 16:48:45.000,31.569,5.637,1811.605734
28 Feb 2020 16:49:45.000,45.695,5.879,1791.427534
28 Feb 2020 16:50:45.000,59.389,4.976,1866.204952
28 Feb 2020 16:51:45.000,71.447,3.201,2025.324648
28 Feb 2020 16:52:45.000,81.405,0.951,2250.538532
28 Feb 2020 16:53:08.738,84.782,0.000,2353.744174
28 Feb 2020 18:20:59.956,318.412,0.000,2356.795260
28 Feb 2020 18:21:59.000,317.753,4.029,1950.297653
28 Feb 2020 18:22:59.000,316.639,9.303,1540.176932
28 Feb 2020 18:23:59.000,314.551,16.999,1138.936651
28 Feb 2020 18:24:59.000,309.573,30.585,763.781094
28 Feb 2020 18:25:59.000,286.700,59.289,483.495219
28 Feb 2020 18:26:59.000,173.077,55.919,499.913250
28 Feb 2020 18:27:59.000,154.194,28.866,794.835438
28 Feb 2020 18:28:59.000,149.630,16.066,1173.757477
28 Feb 2020 18:29:59.000,147.619,8.670,1576.250286
28 Feb 2020 18:30:59.000,146.491,3.533,1986.860334
28 Feb 2020 18:31:51.157,145.845,0.000,2346.058439
28 Feb 2020 20:01:19.389,253.373,0.000,2351.045167
28 Feb 2020 20:02:19.000,242.656,0.598,2284.052851
28 Feb 2020 20:03:19.000,231.582,0.517,2291.386459
28 Feb 2020 20:04:04.763,223.385,0.000,2347.100863
29 Feb 2020 07:41:59.193,202.070,0.000,2321.245043
29 Feb 2020 07:42:59.000,198.763,3.959,1923.703406
29 Feb 2020 07:43:59.000,193.677,8.933,1536.080479
29 Feb 2020 07:44:59.000,184.995,15.629,1173.385587
29 Feb 2020 07:45:59.000,168.089,24.828,869.993376
29 Feb 2020 07:46:59.000,134.480,32.977,708.886485
29 Feb 2020 07:47:59.000,94.974,28.788,784.198335
29 Feb 2020 07:48:59.000,72.521,19.012,1045.888958
29 Feb 2020 07:49:59.000,61.479,11.404,1391.881161
29 Feb 2020 07:50:59.000,55.360,5.875,1772.512163
29 Feb 2020 07:51:59.000,51.559,1.579,2168.458655
29 Feb 2020 07:52:24.370,50.360,0.000,2338.271406
29 Feb 2020 09:19:33.662,260.670,0.000,2329.295089
29 Feb 2020 09:20:33.000,268.236,3.018,2019.030465
29 Feb 2020 09:21:33.000,278.483,6.129,1748.636831
29 Feb 2020 09:22:33.000,292.033,8.915,1545.969691
29 Feb 2020 09:23:33.000,308.725,10.590,1440.691412
29 Feb 2020 09:24:33.000,326.573,10.387,1454.364792
29 Feb 2020 09:25:33.000,342.669,8.423,1583.673251
29 Feb 2020 09:26:33.000,355.465,5.544,1803.296497
29 Feb 2020 09:27:33.000,5.095,2.455,2083.993466
29 Feb 2020 09:28:21.972,11.132,0.000,2342.538152
29 Feb 2020 15:58:46.486,14.863,0.000,2356.865377
29 Feb 2020 15:59:46.000,25.347,1.064,2241.279992
29 Feb 2020 16:00:46.000,36.696,1.498,2195.756170
29 Feb 2020 16:01:46.000,48.122,1.203,2226.224967
29 Feb 2020 16:02:46.000,58.890,0.237,2329.739778
29 Feb 2020 16:02:56.963,60.741,0.000,2355.883851
29 Feb 2020 17:32:45.124,328.265,0.000,2356.770300
29 Feb 2020 17:33:45.000,330.521,4.017,1951.577919
29 Feb 2020 17:34:45.000,333.922,9.137,1551.509251
29 Feb 2020 17:35:45.000,339.746,16.347,1166.221362
29 Feb 2020 17:36:45.000,351.981,27.770,819.745548
29 Feb 2020 17:37:45.000,25.717,43.809,588.259195
29 Feb 2020 17:38:45.000,84.611,40.692,619.576360
29 Feb 2020 17:39:45.000,111.535,24.828,886.298715
29 Feb 2020 17:40:45.000,121.749,14.511,1244.791868
29 Feb 2020 17:41:45.000,126.832,7.856,1634.861823
29 Feb 2020 17:42:45.000,129.859,3.016,2037.338088
29 Feb 2020 17:43:30.798,131.461,0.000,2348.162360
29 Feb 2020 19:10:46.194,281.432,0.000,2354.529178
29 Feb 2020 19:11:46.000,272.592,2.467,2094.970713
29 Feb 2020 19:12:46.000,261.474,4.639,1892.521455
29 Feb 2020 19:13:46.000,248.194,6.104,1768.948034
29 Feb 2020 19:14:46.000,233.688,6.435,1741.505767
29 Feb 2020 19:15:46.000,219.571,5.514,1814.501914
29 Feb 2020 19:16:46.000,207.219,3.647,1976.398380
29 Feb 2020 19:17:46.000,197.138,1.287,2206.980892
29 Feb 2020 19:18:16.743,192.810,0.000,2345.093804
1 Mar 2020 06:54:15.400,186.348,0.000,2319.806291
1 Mar 2020 06:55:15.000,180.073,3.430,1970.811749
1 Mar 2020 06:56:15.000,171.104,7.276,1651.442893
1 Mar 2020 06:57:15.000,158.073,11.316,1388.374424
1 Mar 2020 06:58:15.000,139.829,14.591,1220.201670
1 Mar 2020 06:59:15.000,117.997,15.309,1188.890868
1 Mar 2020 07:00:15.000,97.799,12.929,1304.603476
1 Mar 2020 07:01:15.000,82.670,9.054,1534.143352
1 Mar 2020 07:02:15.000,72.235,5.088,1834.616205
1 Mar 2020 07:03:15.000,65.021,1.476,2175.919137
1 Mar 2020 07:03:41.565,62.537,0.000,2335.197807
1 Mar 2020 08:30:32.138,244.473,0.000,2325.578844
1 Mar 2020 08:31:32.000,249.688,3.676,1953.691955
1 Mar 2020 08:32:32.000,257.328,8.008,1603.640070
1 Mar 2020 08:33:32.000,269.133,13.092,1296.731789
1 Mar 2020 08:34:32.000,287.685,18.259,1072.298326
1 Mar 2020 08:35:32.000,313.388,20.719,989.150486
1 Mar 2020 08:36:32.000,338.856,18.099,1080.551366
1 Mar 2020 08:37:32.000,357.047,12.936,1309.999936
1 Mar 2020 08:38:32.000,8.629,7.913,1619.003957
1 Mar 2020 08:39:32.000,16.174,3.636,1969.398757
1 Mar 2020 08:40:31.892,21.373,0.000,2340.769568
1 Mar 2020 16:44:41.403,337.908,0.000,2356.522209
1 Mar 2020 16:45:41.000,342.856,3.653,1984.667767
1 Mar 2020 16:46:41.000,350.066,7.995,1630.318933
1 Mar 2020 16:47:41.000,1.185,13.168,1314.585437
1 Mar 2020 16:48:41.000,18.923,18.697,1074.146647
1 Mar 2020 16:49:41.000,44.587,21.892,968.357809
1 Mar 2020 16:50:41.000,71.326,19.645,1039.814988
1 Mar 2020 16:51:41.000,90.710,14.254,1258.598430
1 Mar 2020 16:52:41.000,102.889,8.910,1563.502032
1 Mar 2020 16:53:41.000,110.669,4.395,1912.944598
1 Mar 2020 16:54:41.000,115.938,0.592,2285.552921
1 Mar 2020 16:54:51.204,116.666,0.000,2350.350938
1 Mar 2020 18:21:34.645,296.954,0.000,2355.646182
1 Mar 2020 18:22:34.000,290.801,3.372,2009.512853
1 Mar 2020 18:23:34.000,282.009,7.135,1691.628777
1 Mar 2020 18:24:34.000,269.340,11.053,1429.136977
1 Mar 2020 18:25:34.000,251.739,14.241,1258.467027
1 Mar 2020 18:26:34.000,230.614,15.055,1219.468175
1 Mar 2020 18:27:34.000,210.699,12.899,1323.835418
1 Mar 2020 18:28:34.000,195.435,9.179,1542.241855
1 Mar 2020 18:29:34.000,184.721,5.271,1833.552684
1 Mar 2020 18:30:34.000,177.219,1.671,2167.515091
1 Mar 2020 18:31:04.152,174.291,0.000,2345.407537
2 Mar 2020 06:07:01.348,167.792,0.000,2319.331269
2 Mar 2020 06:08:01.000,158.832,2.500,2059.212829
2 Mar 2020 06:09:01.000,147.499,4.722,1855.888575
2 Mar 2020 06:10:01.000,133.919,6.227,1732.888142
2 Mar 2020 06:11:01.000,119.090,6.559,1708.397938
2 Mar 2020 06:12:01.000,104.735,5.597,1786.747687
2 Mar 2020 06:13:01.000,92.292,3.677,1955.467244
2 Mar 2020 06:14:01.000,82.244,1.271,2193.316836
2 Mar 2020 06:14:30.964,78.068,0.000,2331.398660
2 Mar 2020 07:41:51.278,229.493,0.000,2322.534570
2 Mar 2020 07:42:51.000,231.907,4.036,1917.952928
2 Mar 2020 07:43:51.000,235.645,9.212,1518.572028
2 Mar 2020 07:44:51.000,242.180,16.525,1136.283251
2 Mar 2020 07:45:51.000,256.106,27.999,798.672576
2 Mar 2020 07:46:51.000,292.890,42.388,590.608003
2 Mar 2020 07:47:51.000,347.068,37.049,651.877730
2 Mar 2020 07:48:51.000,11.467,22.681,930.420307
2 Mar 2020 07:49:51.000,21.378,13.264,1291.852974
2 Mar 2020 07:50:51.000,26.517,7.029,1682.513556
2 Mar 2020 07:51:51.000,29.670,2.411,2084.792377
2 Mar 2020 07:52:28.486,31.104,0.000,2338.738857
2 Mar 2020 09:22:37.976,302.558,0.000,2334.893090
2 Mar 2020 09:23:37.000,313.165,0.880,2240.362726
2 Mar 2020 09:24:37.000,324.524,1.115,2216.833206
2 Mar 2020 09:25:37.000,335.740,0.642,2268.623678
2 Mar 2020 09:26:15.766,342.585,0.000,2339.934942
2 Mar 2020 15:56:49.634,348.025,0.000,2356.049602
2 Mar 2020 15:57:49.000,355.322,3.048,2041.130040
2 Mar 2020 15:58:49.000,5.206,6.236,1762.690947
2 Mar 2020 15:59:49.000,18.395,9.192,1547.609605
2 Mar 2020 16:00:49.000,34.961,11.135,1426.100442
2 Mar 2020 16:01:49.000,53.129,11.181,1423.067862
2 Mar 2020 16:02:49.000,69.831,9.300,1539.396244
2 Mar 2020 16:03:49.000,83.180,6.358,1751.199588
2 Mar 2020 16:04:49.000,93.179,3.155,2028.199995
2 Mar 2020 16:05:49.000,100.598,0.053,2346.602367
2 Mar 2020 16:05:50.061,100.711,-0.000,2352.499378
2 Mar 2020 17:32:50.150,309.108,-0.000,2355.966841
2 Mar 2020 17:33:50.000,305.811,3.916,1959.762817
2 Mar 2020 17:34:50.000,300.736,8.786,1574.178605
2 Mar 2020 17:35:50.000,292.167,15.237,1213.699459
2 Mar 2020 17:36:50.000,275.913,23.902,910.979890
2 Mar 2020 17:37:50.000,244.536,31.752,742.341132
2 Mar 2020 17:38:50.000,206.262,28.705,798.527719
2 Mar 2020 17:39:50.000,182.874,19.466,1043.585097
2 Mar 2020 17:40:50.000,171.015,11.861,1379.574031
2 Mar 2020 17:41:50.000,164.371,6.257,1753.975962
2 Mar 2020 17:42:50.000,160.202,1.896,2145.570954
2 Mar 2020 17:43:20.268,158.640,0.000,2346.487190
3 Mar 2020 05:21:07.541,137.596,0.000,2321.032591
3 Mar 2020 05:22:07.000,126.757,0.654,2250.938235
3 Mar 2020 05:23:07.000,115.498,0.620,2256.179476
3 Mar 2020 05:24:00.776,105.746,0.000,2325.593379
3 Mar 2020 06:53:28.594,214.954,0.000,2320.182271
3 Mar 2020 06:54:28.000,214.353,4.101,1909.738709
3 Mar 2020 06:55:28.000,213.387,9.491,1498.170763
3 Mar 2020 06:56:28.000,211.595,17.495,1095.699819
3 Mar 2020 06:57:28.000,207.181,32.120,720.886712
3 Mar 2020 06:58:28.000,182.459,64.530,452.500296
3 Mar 2020 06:59:28.000,59.599,53.005,507.053788
3 Mar 2020 07:00:28.000,46.819,26.944,822.467168
3 Mar 2020 07:01:28.000,43.581,14.947,1208.694582
3 Mar 2020 07:02:28.000,42.159,7.920,1614.663553
3 Mar 2020 07:03:28.000,41.393,2.977,2027.326184
3 Mar 2020 07:04:12.734,41.034,0.000,2336.425772
3 Mar 2020 08:32:16.628,277.034,0.000,2329.450224
3 Mar 2020 08:33:16.000,286.356,2.239,2094.839207
3 Mar 2020 08:34:16.000,297.825,4.117,1918.728999
3 Mar 2020 08:35:16.000,311.065,5.243,1822.330088
3 Mar 2020 08:36:16.000,325.065,5.304,1818.590593
3 Mar 2020 08:37:16.000,338.411,4.285,1907.889437
3 Mar 2020 08:38:16.000,350.047,2.483,2077.767141
3 Mar 2020 08:39:16.000,359.639,0.267,2309.757117
3 Mar 2020 08:39:22.873,0.612,0.000,2339.470522
3 Mar 2020 15:09:15.003,359.853,0.000,2355.521975
3 Mar 2020 15:10:15.000,9.208,2.210,2122.456244
3 Mar 2020 15:11:15.000,20.531,4.033,1949.320437
3 Mar 2020 15:12:15.000,33.541,5.121,1853.966504
3 Mar 2020 15:13:15.000,47.285,5.177,1849.049517
3 Mar 2020 15:14:15.000,60.429,4.181,1935.442573
3 Mar 2020 15:15:15.000,71.948,2.410,2101.743865
3 Mar 2020 15:16:15.000,81.488,0.215,2330.447749
3 Mar 2020 15:16:20.578,82.277,0.000,2354.251843
3 Mar 2020 16:44:22.108,319.672,0.000,2355.770752
3 Mar 2020 16:45:22.000,319.373,4.103,1942.911003
3 Mar 2020 16:46:22.000,318.828,9.422,1531.983570
3 Mar 2020 16:47:22.000,317.749,17.234,1129.371914
3 Mar 2020 16:48:22.000,315.059,31.263,751.679703
3 Mar 2020 16:49:22.000,300.790,63.100,467.610150
3 Mar 2020 16:50:22.000,159.384,58.356,487.754961
3 Mar 2020 16:51:22.000,148.433,29.183,789.126836
3 Mar 2020 16:52:22.000,146.004,16.151,1171.108420
3 Mar 2020 16:53:22.000,144.957,8.706,1575.134471
3 Mar 2020 16:54:22.000,144.379,3.554,1986.620309
3 Mar 2020 16:55:14.402,144.050,0.000,2348.001380
3 Mar 2020 18:24:10.339,259.255,0.000,2352.612962
3 Mar 2020 18:25:10.000,248.677,0.984,2244.558936
3 Mar 2020 18:26:10.000,237.338,1.298,2210.395272
3 Mar 2020 18:27:10.000,226.050,0.871,2254.287362
3 Mar 2020 18:28:00.350,217.157,0.000,2348.133382
4 Mar 2020 06:05:24.161,200.166,0.000,2318.501415
4 Mar 2020 06:06:24.000,196.464,3.916,1924.757880
4 Mar 2020 06:07:24.000,190.808,8.783,1543.231137
4 Mar 2020 06:08:24.000,181.306,15.183,1190.347889
4 Mar 2020 06:09:24.000,163.571,23.462,902.850056
4 Mar 2020 06:10:24.000,131.501,29.831,760.900114
4 Mar 2020 06:11:24.000,95.998,25.965,842.389422
4 Mar 2020 06:12:24.000,74.570,17.505,1098.500366
4 Mar 2020 06:13:24.000,63.330,10.556,1438.136688
4 Mar 2020 06:14:24.000,56.884,5.321,1814.017500
4 Mar 2020 06:15:24.000,52.802,1.171,2206.547459
4 Mar 2020 06:15:43.157,51.803,0.000,2333.801352
4 Mar 2020 07:42:48.779,258.594,0.000,2325.392931
4 Mar 2020 07:43:48.000,265.888,3.101,2007.091833
4 Mar 2020 07:44:48.000,275.905,6.372,1725.393142
4 Mar 2020 07:45:48.000,289.415,9.413,1509.112924
4 Mar 2020 07:46:48.000,306.482,11.385,1390.012616
4 Mar 2020 07:47:48.000,325.120,11.345,1393.562195
4 Mar 2020 07:48:48.000,342.025,9.325,1518.701558
4 Mar 2020 07:49:48.000,355.344,6.288,1738.776671
4 Mar 2020 07:50:48.000,5.227,3.046,2022.150557
4 Mar 2020 07:51:46.781,12.408,0.000,2338.083246
4 Mar 2020 14:22:24.755,18.316,0.000,2355.136464
4 Mar 2020 14:23:24.000,28.876,0.820,2265.705497
4 Mar 2020 14:24:24.000,40.090,1.000,2246.668240
4 Mar 2020 14:25:24.000,51.129,0.488,2301.602081
4 Mar 2020 14:25:53.921,56.361,0.000,2355.289004
4 Mar 2020 15:56:06.458,329.489,0.000,2355.243381
4 Mar 2020 15:57:06.000,332.088,3.966,1954.933356
4 Mar 2020 15:58:06.000,336.020,9.015,1558.749764
4 Mar 2020 15:59:06.000,342.694,16.017,1179.699320
4 Mar 2020 16:00:06.000,356.284,26.654,844.010791
4 Mar 2020 16:01:06.000,29.669,39.938,628.326840
4 Mar 2020 16:02:06.000,81.131,37.012,663.767673
4 Mar 2020 16:03:06.000,107.651,23.479,921.829874
4 Mar 2020 16:04:06.000,118.738,13.934,1273.116556
4 Mar 2020 16:05:06.000,124.444,7.543,1658.519843
4 Mar 2020 16:06:06.000,127.889,2.815,2057.853958
4 Mar 2020 16:06:49.250,129.635,0.000,2349.645679
4 Mar 2020 17:33:56.959,283.701,0.000,2354.506076
4 Mar 2020 17:34:56.000,275.291,2.584,2083.815386
4 Mar 2020 17:35:56.000,264.396,4.988,1862.977006
4 Mar 2020 17:36:56.000,251.052,6.753,1718.820345
4 Mar 2020 17:37:56.000,236.071,7.364,1671.788655
4 Mar 2020 17:38:56.000,221.194,6.586,1729.842863
4 Mar 2020 17:39:56.000,208.088,4.711,1882.900049
4 Mar 2020 17:40:56.000,197.441,2.261,2109.679214
4 Mar 2020 17:41:47.577,190.146,0.000,2346.783199

